sat.trackr.live / text

‹ back to catalog

STARLINK-30261

NORAD 57523 · 2023-115C

PAYLOAD ACTIVE UNKNOWN

§ Identity

Operator
Country
US
Launch date
2023-08-08
Launch site
AFWTR
Launch vehicle
Mass (kg)
RCS (m²)

Purposes: comms

External: N2YO · Heavens-Above · Gunter

§ Orbital elements

Epoch: 2026-05-24T18:24:01.122624Z

Period
94.27 min
Inclination
43.0044°
Eccentricity
0.0001558
Mean motion
15.27572107 rev/d
Perigee alt
482.0 km
Apogee alt
484.1 km
Semi-major
6,861.2 km
B*
1.1429e-5
RAAN
292.1766°
Arg perigee
265.1206°
Mean anomaly
94.9468°
Rev number
15,398

§ Raw data

STARLINK-302611 57523U 23115C   26144.76667966  .00000052  00000+0  11429-4 0  99912 57523  43.0044 292.1766 0001558 265.1206  94.9468 15.27572107153986

JSON: /api/v1/satellites/57523 · /tle

For live sub-satellite position, see the globe view (requires WebGL).

§ Visibility from observer

Set your observer location to see the next 7 days of passes ≥ 10°. The values pass through the URL so the page stays shareable.

No JS? Fill the form by hand. The geolocation button needs JavaScript.